Regional Weather Roundup
Issued by NWS

Home | Current Version | Previous Version | Graphics & Text | Print | Product List | Glossary On
Versions: 1 2 3 4 5 6 7 8 9 10 11 12 13 14 15 16 17 18 19 20 21 22 23 24 25 26 27 28 29 30 31 32 33 34 35 36 37 38 39 40 41 42 43 44 45 46 47 48 49 50
000
ASUS43 KLMK 051302
RWRKY
KENTUCKY REGIONAL WEATHER ROUNDUP
NATIONAL WEATHER SERVICE LOUISVILLE KY
900 AM EDT THU MAY 05 2016

NOTE "FAIR" INDICATES FEW OR NO CLOUDS BELOW 12,000 FEET
WITH NO SIGNIFICANT WEATHER AND/OR OBSTRUCTIONS TO VISIBILITY.

KYZ001>023-026-027-061>063-070>075-051400-
WESTERN AND SOUTH CENTRAL KENTUCKY

CITY           SKY/WX    TMP DP  RH WIND       PRES   REMARKS
PADUCAH        SUNNY     53  42  66 N13G21    29.90R
HENDERSON      MOSUNNY   48  36  61 NW13G21   29.86R
OWENSBORO      CLOUDY    48  39  71 N14G21    29.85R
HOPKINSVILLE   SUNNY     52  43  72 NW14      29.83R
BOWLING GREEN  CLOUDY    50  43  77 W8        29.80R
GLASGOW        NOT AVBL
$$

KYZ024-025-028>034-038-045-046-053-051400-
NORTH CENTRAL KENTUCKY

CITY           SKY/WX    TMP DP  RH WIND       PRES   REMARKS
LOUISVILLE/SDF LGT RAIN  48  41  76 N13       29.81R
LOUISVILLE/LOU CLOUDY    46  41  82 N7        29.82R
FORT KNOX      CLOUDY    44  40  86 N9G20     29.80R
$$

KYZ035>037-039>044-047>052-055>060-089>105-051400-
NORTHEAST KENTUCKY

CITY           SKY/WX    TMP DP  RH WIND       PRES   REMARKS
LEXINGTON      CLOUDY    44  39  82 N9        29.78R
COVINGTON      PTSUNNY   45  38  76 N12       29.80R
FRANKFORT      CLOUDY    48  40  73 NE9       29.78R
$$

KYZ054-064>069-076>088-106>120-051400-
SOUTHEAST KENTUCKY

CITY           SKY/WX    TMP DP  RH WIND       PRES   REMARKS
JACKSON        CLOUDY    43  41  93 CALM      29.76R
LONDON         LGT RAIN  44  41  89 SW3       29.77R
SOMERSET       NOT AVBL
MIDDLESBORO    NOT AVBL
MONTICELLO     NOT AVBL
$$




USA.gov is the U.S. government's official web portal to all federal, state and local government web resources and services.